| time (UTC) | temp C | wind direction | speed KPH | gust KPH | rain 1hr cm | rain 24hr cm | rain mn cm | humidity % | barometer mb |
| 20260504050504 | 18 | 81 | 4.8 | 14.5 | 0.00 | 0.00 | 0.00 | 64 | 1008.2 |
| 20260504050005 | 18 | 37 | 6.4 | 19.3 | 0.00 | 0.00 | 0.00 | 63 | 1008.2 |
| 20260504045502 | 18 | 32 | 6.4 | 17.7 | 0.00 | 0.00 | 0.00 | 63 | 1008.1 |
| 20260504045003 | 18 | 68 | 8.0 | 19.3 | 0.00 | 0.00 | 0.00 | 62 | 1008.0 |
| 20260504044506 | 18 | 50 | 6.4 | 19.3 | 0.00 | 0.00 | 0.00 | 62 | 1007.9 |
| 20260504044004 | 18 | 16 | 6.4 | 17.7 | 0.00 | 0.00 | 0.00 | 62 | 1008.0 |
| 20260504043502 | 18 | 51 | 6.4 | 19.3 | 0.00 | 0.00 | 0.00 | 62 | 1007.9 |
| 20260504043006 | 18 | 54 | 6.4 | 19.3 | 0.00 | 0.00 | 0.00 | 61 | 1007.9 |
| 20260504042503 | 18 | 51 | 3.2 | 14.5 | 0.00 | 0.00 | 0.00 | 61 | 1007.9 |
| 20260504042002 | 18 | 48 | 3.2 | 24.1 | 0.00 | 0.00 | 0.00 | 61 | 1008.1 |
| 20260504041504 | 18 | 62 | 4.8 | 24.1 | 0.00 | 0.00 | 0.00 | 61 | 1008.0 |
| 20260504041002 | 18 | 14 | 8.0 | 22.5 | 0.00 | 0.00 | 0.00 | 60 | 1008.1 |
| 20260504040502 | 18 | 22 | 6.4 | 27.4 | 0.00 | 0.00 | 0.00 | 59 | 1008.0 |
| 20260504040005 | 19 | 49 | 4.8 | 16.1 | 0.00 | 0.00 | 0.00 | 59 | 1008.1 |
| 20260504035502 | 19 | 29 | 6.4 | 25.7 | 0.00 | 0.03 | 0.00 | 59 | 1008.0 |
| 20260504035003 | 19 | 58 | 8.0 | 27.4 | 0.00 | 0.03 | 0.00 | 58 | 1008.0 |
| 20260504034502 | 19 | 54 | 6.4 | 27.4 | 0.00 | 0.03 | 0.00 | 59 | 1008.0 |
| 20260504034002 | 19 | 45 | 6.4 | 20.9 | 0.00 | 0.03 | 0.00 | 59 | 1008.1 |
| 20260504033502 | 18 | 50 | 6.4 | 24.1 | 0.00 | 0.03 | 0.00 | 58 | 1008.1 |
| 20260504033002 | 19 | 78 | 8.0 | 24.1 | 0.00 | 0.03 | 0.00 | 58 | 1008.2 |
| 20260504032503 | 19 | 59 | 6.4 | 27.4 | 0.00 | 0.03 | 0.00 | 58 | 1008.2 |
| 20260504032002 | 19 | 77 | 8.0 | 27.4 | 0.00 | 0.03 | 0.00 | 58 | 1008.2 |
| 20260504031503 | 19 | 78 | 6.4 | 27.4 | 0.00 | 0.03 | 0.00 | 58 | 1008.2 |
| 20260504031003 | 19 | 68 | 9.7 | 29.0 | 0.00 | 0.03 | 0.00 | 57 | 1008.2 |
| 20260504030503 | 19 | 59 | 11.3 | 29.0 | 0.00 | 0.03 | 0.00 | 57 | 1008.3 |
| 20260504030015 | 18 | 39 | 8.0 | 32.2 | 0.00 | 0.03 | 0.00 | 58 | 1008.5 |
| 20260504025503 | 18 | 43 | 11.3 | 32.2 | 0.00 | 0.03 | 0.00 | 57 | 1008.5 |
| 20260504025002 | 18 | 346 | 11.3 | 25.7 | 0.00 | 0.03 | 0.00 | 57 | 1008.6 |
| 20260504024505 | 18 | 36 | 11.3 | 22.5 | 0.00 | 0.03 | 0.00 | 57 | 1008.5 |
| 20260504024002 | 18 | 17 | 6.4 | 25.7 | 0.00 | 0.03 | 0.00 | 57 | 1008.7 |
| 20260504023506 | 18 | 328 | 9.7 | 25.7 | 0.00 | 0.03 | 0.00 | 57 | 1008.7 |
| 20260504023002 | 18 | 359 | 12.9 | 27.4 | 0.00 | 0.03 | 0.00 | 57 | 1008.8 |
| 20260504022502 | 18 | 62 | 11.3 | 27.4 | 0.00 | 0.03 | 0.00 | 56 | 1008.9 |
| 20260504022003 | 18 | 35 | 6.4 | 27.4 | 0.00 | 0.03 | 0.00 | 58 | 1009.0 |
| 20260504021503 | 18 | 71 | 8.0 | 29.0 | 0.00 | 0.03 | 0.00 | 58 | 1009.0 |
| 20260504021002 | 18 | 359 | 9.7 | 25.7 | 0.00 | 0.03 | 0.00 | 59 | 1009.1 |
| 20260504020505 | 18 | 50 | 8.0 | 25.7 | 0.00 | 0.03 | 0.00 | 60 | 1009.2 |
| 20260504020005 | 17 | 17 | 6.4 | 29.0 | 0.00 | 0.03 | 0.00 | 61 | 1009.2 |
| 20260504015502 | 17 | 63 | 9.7 | 29.0 | 0.00 | 0.03 | 0.00 | 60 | 1009.3 |
| 20260504015002 | 17 | 23 | 8.0 | 38.6 | 0.00 | 0.03 | 0.00 | 61 | 1009.6 |
| 20260504014507 | 17 | 54 | 12.9 | 38.6 | 0.00 | 0.03 | 0.00 | 60 | 1009.6 |
| 20260504014005 | 17 | 46 | 9.7 | 25.7 | 0.00 | 0.03 | 0.00 | 61 | 1009.6 |
| 20260504013503 | 17 | 47 | 9.7 | 25.7 | 0.00 | 0.03 | 0.00 | 61 | 1009.8 |
| 20260504013002 | 17 | 359 | 11.3 | 25.7 | 0.00 | 0.03 | 0.00 | 60 | 1009.9 |
| 20260504012503 | 17 | 60 | 9.7 | 25.7 | 0.00 | 0.03 | 0.00 | 61 | 1009.8 |
| 20260504012002 | 17 | 26 | 6.4 | 20.9 | 0.00 | 0.03 | 0.00 | 62 | 1009.7 |
| 20260504011502 | 17 | 8 | 6.4 | 24.1 | 0.00 | 0.03 | 0.00 | 63 | 1009.7 |
| 20260504011004 | 17 | 18 | 9.7 | 24.1 | 0.00 | 0.03 | 0.00 | 62 | 1009.8 |
| 20260504010502 | 17 | 23 | 4.8 | 19.3 | 0.00 | 0.03 | 0.00 | 63 | 1009.7 |
| 20260504010005 | 17 | 42 | 4.8 | 22.5 | 0.00 | 0.03 | 0.00 | 63 | 1009.8 |
| 20260504005503 | 17 | 83 | 8.0 | 22.5 | 0.00 | 0.23 | 0.00 | 63 | 1009.8 |
| 20260504005003 | 17 | 86 | 4.8 | 19.3 | 0.00 | 0.23 | 0.00 | 64 | 1009.7 |
| 20260504004507 | 17 | 64 | 8.0 | 17.7 | 0.00 | 0.23 | 0.00 | 64 | 1009.8 |
| 20260504004002 | 17 | 29 | 4.8 | 16.1 | 0.00 | 0.23 | 0.00 | 65 | 1009.8 |
| 20260504003504 | 17 | 62 | 4.8 | 16.1 | 0.00 | 0.23 | 0.00 | 65 | 1009.9 |
| 20260504003008 | 16 | 32 | 6.4 | 16.1 | 0.00 | 0.23 | 0.00 | 66 | 1009.9 |
| 20260504002502 | 16 | 16 | 4.8 | 16.1 | 0.00 | 0.23 | 0.00 | 66 | 1010.0 |
| 20260504002102 | 16 | 70 | 6.4 | 19.3 | 0.00 | 0.23 | 0.00 | 66 | 1009.9 |
| 20260504001502 | 16 | 47 | 8.0 | 24.1 | 0.00 | 0.23 | 0.00 | 66 | 1010.0 |
| 20260504001002 | 16 | 44 | 9.7 | 22.5 | 0.00 | 0.23 | 0.00 | 67 | 1009.9 |
| 20260504000502 | 16 | 31 | 8.0 | 19.3 | 0.00 | 0.23 | 0.00 | 68 | 1009.9 |
| 20260504000004 | 16 | 66 | 4.8 | 17.7 | 0.00 | 0.23 | 0.00 | 70 | 1009.9 |
| 20260503235503 | 16 | 44 | 4.8 | 17.7 | 0.00 | 0.61 | 0.00 | 71 | 1010.0 |
| 20260503235005 | 16 | 45 | 6.4 | 17.7 | 0.00 | 0.61 | 0.00 | 71 | 1010.0 |
| 20260503234505 | 15 | 50 | 3.2 | 14.5 | 0.00 | 0.61 | 0.00 | 72 | 1010.1 |
| 20260503234002 | 15 | 21 | 3.2 | 16.1 | 0.00 | 0.61 | 0.00 | 73 | 1010.2 |
| 20260503233503 | 15 | 54 | 6.4 | 17.7 | 0.00 | 0.61 | 0.00 | 72 | 1010.2 |
| 20260503233003 | 15 | 46 | 6.4 | 17.7 | 0.00 | 0.61 | 0.00 | 73 | 1010.3 |
| 20260503232502 | 15 | 359 | 4.8 | 14.5 | 0.00 | 0.61 | 0.00 | 73 | 1010.2 |
| 20260503232003 | 15 | 67 | 6.4 | 19.3 | 0.00 | 0.61 | 0.00 | 73 | 1010.2 |
| 20260503231502 | 15 | 36 | 6.4 | 22.5 | 0.00 | 0.61 | 0.00 | 73 | 1010.1 |
| 20260503231002 | 15 | 69 | 6.4 | 20.9 | 0.00 | 0.61 | 0.00 | 74 | 1009.9 |
| 20260503230502 | 15 | 47 | 6.4 | 20.9 | 0.00 | 0.61 | 0.00 | 74 | 1009.8 |
| 20260503230005 | 14 | 87 | 4.8 | 14.5 | 0.00 | 0.61 | 0.00 | 75 | 1009.9 |
| 20260503225501 | 14 | 61 | 6.4 | 16.1 | 0.00 | 0.61 | 0.00 | 76 | 1010.0 |
| 20260503225001 | 13 | 60 | 4.8 | 16.1 | 0.00 | 0.61 | 0.00 | 77 | 1010.2 |
| 20260503224501 | 13 | 74 | 3.2 | 9.7 | 0.00 | 0.61 | 0.00 | 78 | 1010.1 |
| 20260503224002 | 13 | 65 | 4.8 | 12.9 | 0.00 | 0.61 | 0.00 | 78 | 1010.2 |
| 20260503223501 | 13 | 69 | 3.2 | 14.5 | 0.00 | 0.61 | 0.00 | 77 | 1010.1 |
| 20260503223002 | 13 | 66 | 3.2 | 14.5 | 0.00 | 0.61 | 0.00 | 78 | 1010.1 |
| 20260503222501 | 13 | 85 | 4.8 | 14.5 | 0.00 | 0.61 | 0.00 | 78 | 1010.1 |
| 20260503222001 | 13 | 87 | 3.2 | 14.5 | 0.00 | 0.61 | 0.00 | 78 | 1010.2 |
| 20260503221503 | 13 | 88 | 3.2 | 16.1 | 0.00 | 0.61 | 0.00 | 79 | 1010.2 |
| 20260503221001 | 13 | 359 | 4.8 | 16.1 | 0.00 | 0.61 | 0.00 | 79 | 1010.1 |
| 20260503220501 | 12 | 52 | 4.8 | 12.9 | 0.00 | 0.61 | 0.00 | 79 | 1010.1 |
| 20260503220004 | 12 | 93 | 4.8 | 12.9 | 0.00 | 0.61 | 0.00 | 80 | 1010.1 |
| 20260503215500 | 12 | 359 | 4.8 | 17.7 | 0.00 | 0.61 | 0.00 | 80 | 1010.2 |
| 20260503215001 | 12 | 63 | 4.8 | 17.7 | 0.00 | 0.61 | 0.00 | 80 | 1010.1 |
| 20260503214501 | 12 | 36 | 3.2 | 9.7 | 0.00 | 0.61 | 0.00 | 81 | 1010.1 |
| 20260503214001 | 12 | 73 | 3.2 | 8.0 | 0.00 | 0.61 | 0.00 | 82 | 1010.0 |
| 20260503213501 | 12 | 82 | 3.2 | 9.7 | 0.00 | 0.61 | 0.00 | 82 | 1009.9 |
| 20260503213001 | 12 | 59 | 3.2 | 9.7 | 0.00 | 0.61 | 0.00 | 82 | 1010.0 |
| 20260503212501 | 12 | 63 | 3.2 | 8.0 | 0.00 | 0.61 | 0.00 | 83 | 1009.9 |
| 20260503212001 | 12 | 359 | 3.2 | 8.0 | 0.00 | 0.61 | 0.00 | 83 | 1009.9 |
| 20260503211502 | 12 | 81 | 3.2 | 8.0 | 0.00 | 0.61 | 0.00 | 83 | 1009.8 |
| 20260503211001 | 12 | 67 | 3.2 | 8.0 | 0.00 | 0.61 | 0.00 | 83 | 1009.8 |
| 20260503210501 | 12 | 85 | 3.2 | 8.0 | 0.00 | 0.61 | 0.00 | 83 | 1009.8 |
| 20260503210003 | 12 | 88 | 3.2 | 9.7 | 0.00 | 0.61 | 0.00 | 84 | 1009.8 |
| 20260503205501 | 12 | 73 | 3.2 | 9.7 | 0.00 | 0.61 | 0.00 | 84 | 1009.7 |
| 20260503205001 | 12 | 100 | 3.2 | 9.7 | 0.00 | 0.61 | 0.00 | 85 | 1009.6 |
| 20260503204501 | 12 | 83 | 3.2 | 8.0 | 0.00 | 0.61 | 0.00 | 85 | 1009.6 |
| 20260503204001 | 12 | 80 | 3.2 | 8.0 | 0.00 | 0.61 | 0.00 | 86 | 1009.6 |
| 20260503203503 | 12 | 91 | 3.2 | 9.7 | 0.00 | 0.61 | 0.00 | 86 | 1009.6 |
| 20260503203001 | 12 | 81 | 3.2 | 9.7 | 0.00 | 0.61 | 0.00 | 86 | 1009.6 |
| 20260503202501 | 12 | 89 | 3.2 | 9.7 | 0.00 | 0.61 | 0.00 | 86 | 1009.8 |
| 20260503202001 | 12 | 102 | 3.2 | 9.7 | 0.00 | 0.61 | 0.00 | 86 | 1009.8 |
| 20260503201501 | 12 | 81 | 3.2 | 9.7 | 0.00 | 0.61 | 0.00 | 86 | 1009.9 |
| 20260503201005 | 12 | 81 | 3.2 | 8.0 | 0.00 | 0.61 | 0.00 | 86 | 1009.7 |
| 20260503200501 | 12 | 81 | 3.2 | 9.7 | 0.00 | 0.61 | 0.00 | 86 | 1009.7 |
| 20260503200004 | 12 | 98 | 3.2 | 6.4 | 0.00 | 0.61 | 0.00 | 86 | 1009.7 |
| 20260503195500 | 12 | 102 | 3.2 | 6.4 | 0.00 | 0.61 | 0.00 | 87 | 1009.6 |
| 20260503195001 | 12 | 89 | 3.2 | 6.4 | 0.00 | 0.61 | 0.00 | 86 | 1009.6 |
| 20260503194501 | 12 | 359 | 3.2 | 12.9 | 0.00 | 0.61 | 0.00 | 86 | 1009.6 |
| 20260503194001 | 12 | 73 | 3.2 | 9.7 | 0.00 | 0.61 | 0.00 | 86 | 1009.6 |
| 20260503193501 | 12 | 85 | 3.2 | 8.0 | 0.00 | 0.61 | 0.00 | 87 | 1009.7 |
| 20260503193000 | 12 | 68 | 3.2 | 8.0 | 0.00 | 0.61 | 0.00 | 87 | 1009.6 |
| 20260503192501 | 12 | 77 | 3.2 | 9.7 | 0.00 | 0.61 | 0.00 | 86 | 1009.7 |
| 20260503192003 | 12 | 95 | 3.2 | 9.7 | 0.00 | 0.61 | 0.00 | 86 | 1009.7 |
| 20260503191501 | 12 | 65 | 3.2 | 9.7 | 0.00 | 0.61 | 0.00 | 86 | 1009.8 |
| 20260503191003 | 12 | 77 | 3.2 | 9.7 | 0.00 | 0.61 | 0.00 | 86 | 1009.8 |
| 20260503190500 | 12 | 67 | 3.2 | 9.7 | 0.00 | 0.61 | 0.00 | 86 | 1009.9 |
| 20260503190004 | 12 | 66 | 4.8 | 9.7 | 0.00 | 0.61 | 0.00 | 86 | 1009.8 |
| 20260503185501 | 12 | 89 | 3.2 | 8.0 | 0.00 | 0.61 | 0.00 | 86 | 1009.8 |
| 20260503185003 | 12 | 92 | 3.2 | 6.4 | 0.00 | 0.61 | 0.00 | 85 | 1009.8 |
| 20260503184503 | 12 | 82 | 3.2 | 9.7 | 0.00 | 0.61 | 0.00 | 85 | 1009.9 |
| 20260503184002 | 12 | 91 | 3.2 | 9.7 | 0.00 | 0.61 | 0.00 | 85 | 1010.1 |
| 20260503183501 | 12 | 80 | 3.2 | 9.7 | 0.00 | 0.61 | 0.00 | 85 | 1010.0 |
| 20260503183001 | 12 | 67 | 3.2 | 9.7 | 0.00 | 0.61 | 0.00 | 85 | 1010.1 |
| 20260503182502 | 12 | 93 | 3.2 | 9.7 | 0.00 | 0.61 | 0.00 | 85 | 1010.1 |
| 20260503182004 | 12 | 89 | 3.2 | 8.0 | 0.00 | 0.61 | 0.00 | 85 | 1010.1 |
| 20260503181502 | 12 | 85 | 3.2 | 8.0 | 0.00 | 0.61 | 0.00 | 85 | 1010.0 |
| 20260503181001 | 12 | 74 | 3.2 | 9.7 | 0.00 | 0.61 | 0.00 | 85 | 1010.0 |
| 20260503180500 | 12 | 64 | 3.2 | 9.7 | 0.00 | 0.61 | 0.00 | 85 | 1010.0 |
| 20260503180012 | 12 | 87 | 3.2 | 8.0 | 0.00 | 0.61 | 0.00 | 85 | 1010.1 |
| 20260503175500 | 12 | 66 | 3.2 | 8.0 | 0.00 | 0.61 | 0.00 | 86 | 1010.1 |
| 20260503175003 | 12 | 93 | 3.2 | 9.7 | 0.00 | 0.61 | 0.00 | 86 | 1010.1 |
| 20260503174501 | 12 | 67 | 3.2 | 8.0 | 0.00 | 0.61 | 0.00 | 86 | 1010.2 |
| 20260503174001 | 12 | 70 | 3.2 | 9.7 | 0.00 | 0.61 | 0.00 | 86 | 1010.3 |
| 20260503173501 | 12 | 90 | 3.2 | 9.7 | 0.00 | 0.61 | 0.00 | 86 | 1010.3 |
| 20260503173001 | 12 | 75 | 3.2 | 9.7 | 0.00 | 0.61 | 0.00 | 86 | 1010.4 |
| 20260503172500 | 12 | 83 | 3.2 | 9.7 | 0.00 | 0.61 | 0.00 | 86 | 1010.4 |
| 20260503172001 | 12 | 87 | 3.2 | 6.4 | 0.00 | 0.61 | 0.00 | 87 | 1010.5 |
| 20260503171501 | 12 | 83 | 1.6 | 6.4 | 0.00 | 0.61 | 0.00 | 87 | 1010.5 |
| 20260503171001 | 12 | 59 | 1.6 | 12.9 | 0.00 | 0.61 | 0.00 | 87 | 1010.5 |
| 20260503170501 | 12 | 93 | 3.2 | 12.9 | 0.00 | 0.61 | 0.00 | 87 | 1010.5 |
| 20260503151002 | 12 | 86 | 3.2 | 8.0 | 0.00 | 0.61 | 0.00 | 88 | 1010.7 |
| 20260503150501 | 12 | 93 | 3.2 | 8.0 | 0.00 | 0.61 | 0.00 | 88 | 1010.8 |
| 20260503131002 | 13 | 88 | 1.6 | 6.4 | 0.00 | 0.61 | 0.00 | 85 | 1011.5 |
| 20260503130502 | 13 | 70 | 1.6 | 4.8 | 0.00 | 0.61 | 0.00 | 85 | 1011.5 |
| 20260503110503 | 14 | 81 | 1.6 | 4.8 | 0.00 | 0.61 | 0.61 | 81 | 1011.3 |
| 20260503090504 | 15 | 66 | 0.0 | 4.8 | 0.00 | 0.61 | 0.61 | 76 | 1011.0 |
| 20260503081502 | 15 | 72 | 1.6 | 3.2 | 0.00 | 0.61 | 0.61 | 73 | 1010.2 |
| 20260503081003 | 15 | 56 | 1.6 | 3.2 | 0.00 | 0.61 | 0.61 | 73 | 1010.2 |
| 20260503080503 | 15 | 54 | 0.0 | 3.2 | 0.00 | 0.61 | 0.61 | 72 | 1010.2 |
| 20260503072503 | 16 | 31 | 0.0 | 4.8 | 0.00 | 0.61 | 0.61 | 66 | 1010.1 |
| 20260503072006 | 17 | 33 | 1.6 | 4.8 | 0.00 | 0.61 | 0.61 | 65 | 1010.1 |
| 20260503071508 | 17 | 8 | 3.2 | 4.8 | 0.00 | 0.61 | 0.61 | 65 | 1010.0 |
| 20260503071003 | 17 | 43 | 3.2 | 8.0 | 0.00 | 0.61 | 0.61 | 64 | 1009.9 |
| 20260503070502 | 17 | 54 | 3.2 | 8.0 | 0.00 | 0.61 | 0.61 | 63 | 1009.8 |
| 20260503055002 | 20 | 354 | 4.8 | 12.9 | 0.00 | 0.61 | 0.61 | 50 | 1009.3 |
| 20260503054503 | 20 | 328 | 4.8 | 14.5 | 0.00 | 0.61 | 0.61 | 52 | 1009.3 |
| 20260503054002 | 19 | 24 | 4.8 | 14.5 | 0.00 | 0.61 | 0.61 | 51 | 1009.3 |
| 20260503053502 | 19 | 8 | 1.6 | 9.7 | 0.00 | 0.61 | 0.61 | 59 | 1009.3 |
| 20260503053002 | 18 | 33 | 4.8 | 12.9 | 0.00 | 0.61 | 0.61 | 58 | 1009.2 |
| 20260503052504 | 18 | 37 | 4.8 | 9.7 | 0.00 | 0.61 | 0.61 | 60 | 1009.2 |
| 20260503052003 | 18 | 18 | 3.2 | 12.9 | 0.00 | 0.61 | 0.61 | 61 | 1009.3 |